Location: NJAA Observatory
(40.6819°N, 74.8979°W)
Time: 14:09:06
(UTC-04:00)

Iridium 84 - Visible Passes

Search period start: 27 May 2016 00:00
Search period end: 06 June 2016 00:00
Orbit: 776 x 779 km, 86.4° (Epoch: 27 May)

Date Brightness Start Highest point End Pass type
(mag) Time Alt. Az. Time Alt. Az. Time Alt. Az.
29 May 8.5 04:56:25 10° NE 04:59:40 16° ENE 05:02:55 10° ESE visible
01 Jun 8.2 04:55:48 10° NNE 04:59:57 23° ENE 05:04:05 10° SE visible
02 Jun 8.6 04:23:46 10° NE 04:26:06 13° ENE 04:28:25 10° E visible
04 Jun 7.5 04:55:29 10° NNE 05:00:12 33° E 05:04:53 10° SE visible
05 Jun 8.3 04:22:48 10° NNE 04:26:25 19° ENE 04:30:02 10° ESE visible
